Regional Weather Roundup
Issued by NWS

Home | Current Version | Previous Version | Text Only | Print | Product List | Glossary On
Versions: 1 2 3 4 5 6 7 8 9 10 11 12 13 14 15 16 17 18 19 20 21 22 23 24 25 26 27 28 29 30 31 32 33 34 35 36 37 38 39 40 41 42 43 44 45 46 47 48 49 50
000
ASUS43 KFSD 250202
RWRSD

WEATHER ROUNDUP FOR SOUTH DAKOTA
NATIONAL WEATHER SERVICE SIOUX FALLS SD
800 PM CST SAT FEB 24 2018

NOTE: "FAIR" INDICATES FEW OR NO CLOUDS BELOW 12,000 FEET WITH NO
SIGNIFICANT WEATHER AND/OR OBSTRUCTIONS TO VISIBILITY.


SDZ001>005-009-010-012>017-250300-
NORTHWEST AND NORTH CENTRAL SOUTH DAKOTA

CITY           SKY/WX    TMP DP  RH WIND       PRES   REMARKS
BUFFALO          N/A     13   5  70 W9        29.57S WCI   1
FAITH            N/A     18  12  77 W16       29.66S WCI   3
MOBRIDGE       CLEAR      5   2  87 CALM      29.62F
$$

SDZ012>016-024>037-041>051-057-063-072>074-250300-
SOUTHWEST AND SOUTH CENTRAL SOUTH DAKOTA

CITY           SKY/WX    TMP DP  RH WIND       PRES   REMARKS
RAPID CTY ARPT CLEAR     16   9  74 SW6       29.71R WCI   7
PIERRE         CLEAR     13   8  81 W13       29.69S WCI  -2
CUSTER         CLEAR     16   2  54 W14G21    29.62S WCI   2
ELLSWORTH AFB  CLEAR     16  11  78 CALM      29.69R
PHILIP         CLEAR     18  12  77 NW15      29.72F WCI   4
PINE RIDGE     CLEAR     24  13  62 W12       29.74R WCI  13
SPEARFISH        N/A     25   7  46 W18G25    29.66R WCI  11
WINNER         FAIR      19  10  68 W17       29.72S WCI   4
$$

SDZ004>011-016>023-039-040-250300-
NORTHEAST SOUTH DAKOTA

CITY           SKY/WX    TMP DP  RH WIND       PRES   REMARKS
ABERDEEN       LGT SNOW  16  14  92 NW6       29.66F FOG     WCI   7
WATERTOWN      CLOUDY    14  11  87 W10       29.57F WCI   1
BROOKINGS      FLURRIES  16  14  92 W17       29.60R WCI   0
SISSETON         N/A     15  12  88 NW12      29.61F WCI   2
$$

SDZ017-020-022-023-036>040-048>070-250300-
SOUTHEAST SOUTH DAKOTA

CITY           SKY/WX    TMP DP  RH WIND       PRES   REMARKS
SIOUX FALLS    CLOUDY    18  14  84 W17G24    29.65R WCI   3
HURON          CLOUDY     9   7  92 W14       29.67F WCI  -7
CHAMBERLAIN    CLEAR     15  12  89 SW17G23   29.70F WCI  -2
MITCHELL       PTCLDY    11   8  88 W9        29.70S WCI  -2
YANKTON        PTCLDY    21  17  84 W15       29.70R WCI   8
$$

ABBREVIATIONS USED IN REMARKS
   TC - TEMPERATURE IN CELSIUS
  WCI - WIND CHILL INDEX
   HX - HEAT INDEX
  VSB - VISIBILITY





USA.gov is the U.S. government's official web portal to all federal, state and local government web resources and services.